Darstellungsparameter: Aktuell verwendete Einstellungen:
Skalierung der Graphiken ... ?
xyx+y,   Skalierungsfaktor:      Skalierung: Modus: x, Faktor: 1
Darstellungszeitraum ... ?
Vom - - bis: - -   Zeitraum: 23.02.2003 - 15.08.2004
Min/Max/Avg-Anzeige ... ?
Zeige MMA aktuell
Zeige MMA Monat
Zeige MMA alles
Zeige --A aktuell
Zeige --A Monat
Zeige --A alles
Keine MMA-Anzeige
MMA:
Minimum Maximum Average (ber die Originaldaten)
MMA-Basis: 23.02.2003 - 15.08.2004
Quicknavigation für Darstellung... ?
Tage:      1T, 2T, 3T, 5T -1T -2T -3T -5T +1T +2T +3T +5T
Wochen: 1W, 2W, 3W -1W -2W -3W +1W +2W +3W
Monate: 1M, 3M, 6M -1M -3M -6M +1M +3M +6M
Jahre:    1J, 3J, 5J, 10J -1J -3J -5J -10J +1J +3J +5J +10J
Nutze für die Darstellung ... ?
Originaldaten oder ...
Mittelwerte Minima Maxima auf...
Stundenbasis Tagesbasis Wochenbasis
Monatsbasis Jahresbasis      Datenbasis: Mittelwerte auf Tagesbasis
Darstellen als:
Statistik (Auto) Statistik J:M      Darstellung:

Der gewünschte Datumsbereich war nicht gültig/verfügbar und wurde korrigiert....
Das angegebene Startdatum (16.08.1999 00:00:00) liegt vor dem ersten Datenbankeintrag.


Zur Graphik,    zurück zur Übersicht aller Sensoren.
 
Tabellarische Datenbersicht: ?
 
Sensor: Nr:Datum:Temp:Feuchte:Taupunkt:
Aussen-T/F 1 23-02-2003 00:00:00 -0.25 C 73.6667 % -4.37 C
2 24-02-2003 00:00:00 3.08396 C 62.1497 % -3.44 C
3 25-02-2003 00:00:00 1.22845 C 61.2510 % -5.39 C
4 26-02-2003 00:00:00 2.00653 C 60.7864 % -4.75 C
5 27-02-2003 00:00:00 6.02453 C 60.0440 % -1.13 C
6 28-02-2003 00:00:00 7.01339 C 69.3096 % 1.79 C
7 01-03-2003 00:00:00 7.99123 C 80.4363 % 4.84 C
8 02-03-2003 00:00:00 8.58947 C 81.9378 % 5.69 C
9 03-03-2003 00:00:00 5.41134 C 82.2899 % 2.64 C
10 04-03-2003 00:00:00 6.55188 C 70.4728 % 1.58 C
11 05-03-2003 00:00:00 10.06765 C 68.2563 % 4.49 C
12 06-03-2003 00:00:00 8.17302 C 71.7302 % 3.38 C
13 07-03-2003 00:00:00 5.52766 C 73.3688 % 1.15 C
14 08-03-2003 00:00:00 7.57368 C 59.3759 % 0.18 C
15 09-03-2003 00:00:00 9.86698 C 56.9906 % 1.76 C
16 10-03-2003 00:00:00 10.51917 C 61.8917 % 3.53 C
17 11-03-2003 00:00:00 12.31167 C 63.8833 % 5.68 C
18 12-03-2003 00:00:00 9.19725 C 66.3761 % 3.27 C
19 13-03-2003 00:00:00 7.42917 C 54.1167 % -1.23 C
20 14-03-2003 00:00:00 4.74417 C 52.0833 % -4.24 C
21 15-03-2003 00:00:00 5.11261 C 55.3866 % -3.07 C
22 16-03-2003 00:00:00 5.46583 C 57.2583 % -2.3 C
23 17-03-2003 00:00:00 6.59389 C 56.3778 % -1.45 C
24 18-03-2003 00:00:00 4.7979 C 65.0629 % -1.2 C
25 19-03-2003 00:00:00 6.72437 C 60.6387 % -0.33 C
Sensor: Nr:Datum:Temp:Feuchte:Taupunkt:
Aussen-T/F 26 20-03-2003 00:00:00 5.83083 C 65.2583 % -0.17 C
27 21-03-2003 00:00:00 5.31271 C 58.9407 % -2.05 C
28 22-03-2003 00:00:00 6.51 C 41.2000 % -5.71 C
29 23-03-2003 00:00:00 7.7916 C 37.5462 % -5.77 C
30 24-03-2003 00:00:00 9.90917 C 44.5250 % -1.6 C
31 25-03-2003 00:00:00 12.45126 C 58.1681 % 4.47 C
32 26-03-2003 00:00:00 12.51833 C 69.5417 % 7.11 C
33 27-03-2003 00:00:00 12.4042 C 66.2017 % 6.28 C
34 28-03-2003 00:00:00 13.62333 C 58.6083 % 5.67 C
35 29-03-2003 00:00:00 15.55652 C 61.8522 % 8.28 C
36 30-03-2003 00:00:00 13.94188 C 67.0342 % 7.93 C
37 31-03-2003 00:00:00 10.48833 C 53.6750 % 1.5 C
38 01-04-2003 00:00:00 9.86224 C 56.5105 % 1.64 C
39 02-04-2003 00:00:00 5.81958 C 81.8708 % 2.97 C
40 03-04-2003 00:00:00 5.28292 C 68.8667 % 0.04 C
41 04-04-2003 00:00:00 6.50335 C 58.7847 % -0.97 C
42 05-04-2003 00:00:00 8.93776 C 58.2378 % 1.19 C
43 06-04-2003 00:00:00 8.6063 C 41.3386 % -3.77 C
44 25-04-2003 00:00:00 26.39362 C 26.6809 % 5.73 C
45 26-04-2003 00:00:00 15.08169 C 74.5423 % 10.6 C
46 27-04-2003 00:00:00 12.72168 C 73.9441 % 8.2 C
47 28-04-2003 00:00:00 17.06276 C 60.1241 % 9.28 C
48 29-04-2003 00:00:00 17.9 C 57.5816 % 9.42 C
49 30-04-2003 00:00:00 14.06319 C 82.6389 % 11.16 C
50 01-05-2003 00:00:00 13.28944 C 63.6901 % 6.56 C
Sensor: Nr:Datum:Temp:Feuchte:Taupunkt:
Aussen-T/F 51 02-05-2003 00:00:00 14.91042 C 59.3125 % 7.05 C
52 03-05-2003 00:00:00 14.75944 C 47.3357 % 3.67 C
53 04-05-2003 00:00:00 17.16901 C 49.5704 % 6.54 C
54 05-05-2003 00:00:00 19.43681 C 53.5069 % 9.76 C
55 06-05-2003 00:00:00 15.45874 C 71.7692 % 10.39 C
56 07-05-2003 00:00:00 17.27569 C 60.5208 % 9.57 C
57 08-05-2003 00:00:00 18.80278 C 60.7847 % 11.08 C
58 09-05-2003 00:00:00 15.69375 C 76.2431 % 11.53 C
59 10-05-2003 00:00:00 16.18112 C 59.7203 % 8.35 C
60 11-05-2003 00:00:00 15.48322 C 52.6923 % 5.87 C
61 12-05-2003 00:00:00 16.44028 C 54.5694 % 7.27 C
62 13-05-2003 00:00:00 11.88042 C 65.1399 % 5.55 C
63 14-05-2003 00:00:00 9.76224 C 67.7972 % 4.11 C
64 15-05-2003 00:00:00 12.75944 C 55.0490 % 3.97 C
65 16-05-2003 00:00:00 13.02917 C 54.5694 % 4.1 C
66 17-05-2003 00:00:00 14.35594 C 61.5944 % 7.08 C
67 18-05-2003 00:00:00 16.15714 C 69.7823 % 10.64 C
68 19-05-2003 00:00:00 13.69172 C 88.0552 % 11.75 C
69 20-05-2003 00:00:00 12.97431 C 63.2847 % 6.17 C
70 21-05-2003 00:00:00 11.90559 C 75.7203 % 7.76 C
71 22-05-2003 00:00:00 13.89792 C 84.2569 % 11.29 C
72 23-05-2003 00:00:00 18.97762 C 56.1748 % 10.06 C
73 24-05-2003 00:00:00 19.54577 C 59.3099 % 11.4 C
74 25-05-2003 00:00:00 16.0137 C 65.2740 % 9.51 C
75 26-05-2003 00:00:00 17.77413 C 55.2308 % 8.68 C
Sensor: Nr:Datum:Temp:Feuchte:Taupunkt:
Aussen-T/F 76 27-05-2003 00:00:00 19.34444 C 57.4375 % 10.73 C
77 28-05-2003 00:00:00 20.5951 C 55.7133 % 11.44 C
78 29-05-2003 00:00:00 22.73056 C 49.4931 % 11.62 C
79 30-05-2003 00:00:00 23.71367 C 54.0863 % 13.88 C
80 31-05-2003 00:00:00 21.47902 C 71.0420 % 16.01 C
81 01-06-2003 00:00:00 23.35175 C 63.1538 % 15.95 C
82 02-06-2003 00:00:00 23.57394 C 58.9085 % 15.07 C
83 03-06-2003 00:00:00 23.12153 C 66.6111 % 16.57 C
84 04-06-2003 00:00:00 25.04755 C 60.1049 % 16.77 C
85 05-06-2003 00:00:00 22.86621 C 62.8828 % 15.42 C
86 06-06-2003 00:00:00 22.71608 C 60.7692 % 14.75 C
87 07-06-2003 00:00:00 24.90694 C 57.7083 % 16 C
88 08-06-2003 00:00:00 22.7993 C 68.7902 % 16.77 C
89 09-06-2003 00:00:00 19.85139 C 49.4514 % 8.97 C
90 10-06-2003 00:00:00 21.51389 C 65.1806 % 14.7 C
91 11-06-2003 00:00:00 23.96899 C 60.2089 % 15.78 C
92 12-06-2003 00:00:00 22.99412 C 66.6891 % 16.46 C
93 13-06-2003 00:00:00 22.87647 C 57.4328 % 14.03 C
94 14-06-2003 00:00:00 19.34812 C 68.9833 % 13.52 C
95 15-06-2003 00:00:00 22.11274 C 57.9151 % 13.44 C
96 16-06-2003 00:00:00 22.74242 C 45.5000 % 10.37 C
97 17-06-2003 00:00:00 22.74154 C 52.5385 % 12.54 C
98 18-06-2003 00:00:00 20.45909 C 68.3485 % 14.43 C
99 19-06-2003 00:00:00 20.73846 C 61.8769 % 13.17 C
100 20-06-2003 00:00:00 20.76769 C 49.6000 % 9.85 C
Sensor: Nr:Datum:Temp:Feuchte:Taupunkt:
Aussen-T/F 101 21-06-2003 00:00:00 18.57692 C 47.8615 % 7.32 C
102 22-06-2003 00:00:00 22.50152 C 47.7576 % 10.87 C
103 23-06-2003 00:00:00 23.88438 C 51.8750 % 13.4 C
104 24-06-2003 00:00:00 22.05758 C 51.4545 % 11.59 C
105 25-06-2003 00:00:00 21.8 C 47.4154 % 10.13 C
106 26-06-2003 00:00:00 23.58 C 44.0308 % 10.63 C
107 27-06-2003 00:00:00 22.64923 C 49.3846 % 11.51 C
108 28-06-2003 00:00:00 22.94308 C 58.8154 % 14.46 C
109 29-06-2003 00:00:00 25.77699 C 43.2478 % 12.34 C
110 30-06-2003 00:00:00 22.11883 C 62.6527 % 14.66 C
111 01-07-2003 00:00:00 19.41218 C 64.0672 % 12.45 C
112 02-07-2003 00:00:00 17.99791 C 63.5774 % 10.99 C
113 03-07-2003 00:00:00 17.02667 C 71.4083 % 11.82 C
114 04-07-2003 00:00:00 17.05607 C 70.8243 % 11.72 C
115 05-07-2003 00:00:00 16.84059 C 74.2510 % 12.23 C
116 06-07-2003 00:00:00 20.31743 C 54.4450 % 10.83 C
117 07-07-2003 00:00:00 21.54861 C 51.0486 % 11 C
118 08-07-2003 00:00:00 21.54825 C 50.4476 % 10.82 C
119 09-07-2003 00:00:00 20.83077 C 57.8392 % 12.23 C
120 10-07-2003 00:00:00 21.87972 C 52.3916 % 11.7 C
121 11-07-2003 00:00:00 22.96875 C 51.7083 % 12.5 C
122 12-07-2003 00:00:00 21.7951 C 44.3427 % 9.13 C
123 13-07-2003 00:00:00 22.62708 C 44.8472 % 10.05 C
124 14-07-2003 00:00:00 24.49648 C 36.6479 % 8.72 C
125 15-07-2003 00:00:00 25.82168 C 36.1189 % 9.67 C
Sensor: Nr:Datum:Temp:Feuchte:Taupunkt:
Aussen-T/F 126 16-07-2003 00:00:00 26.9125 C 37.1736 % 11.07 C
127 17-07-2003 00:00:00 21.73147 C 52.1538 % 11.49 C
128 18-07-2003 00:00:00 23.17361 C 44.5347 % 10.44 C
129 19-07-2003 00:00:00 25.16783 C 40.8252 % 10.93 C
130 20-07-2003 00:00:00 25.17292 C 45.1389 % 12.45 C
131 21-07-2003 00:00:00 24.85804 C 58.8462 % 16.26 C
132 22-07-2003 00:00:00 23.93147 C 61.8741 % 16.17 C
133 23-07-2003 00:00:00 23.35208 C 52.8889 % 13.2 C
134 24-07-2003 00:00:00 21.31549 C 63.0352 % 14 C
135 25-07-2003 00:00:00 21.11064 C 63.1560 % 13.83 C
136 26-07-2003 00:00:00 21.33333 C 66.7847 % 14.91 C
137 27-07-2003 00:00:00 20.99861 C 77.9028 % 17 C
138 28-07-2003 00:00:00 20.96667 C 53.4792 % 11.17 C
139 29-07-2003 00:00:00 21.55556 C 46.8264 % 9.72 C
140 30-07-2003 00:00:00 19.87292 C 65.4514 % 13.21 C
141 31-07-2003 00:00:00 22.51319 C 66.7986 % 16.03 C
142 01-08-2003 00:00:00 24.69658 C 52.2123 % 14.25 C
143 02-08-2003 00:00:00 26.31181 C 47.9931 % 14.42 C
144 03-08-2003 00:00:00 26.94236 C 49.3611 % 15.44 C
145 04-08-2003 00:00:00 27.77133 C 46.9371 % 15.41 C
146 05-08-2003 00:00:00 27.84375 C 42.7917 % 14.04 C
147 06-08-2003 00:00:00 27.87292 C 43.5556 % 14.34 C
148 07-08-2003 00:00:00 28.54167 C 38.8472 % 13.18 C
149 08-08-2003 00:00:00 28.9625 C 39.1319 % 13.66 C
150 09-08-2003 00:00:00 28.56528 C 44.3542 % 15.25 C
Sensor: Nr:Datum:Temp:Feuchte:Taupunkt:
Aussen-T/F 151 10-08-2003 00:00:00 27.40347 C 38.8056 % 12.15 C
152 11-08-2003 00:00:00 26.68333 C 38.7500 % 11.49 C
153 12-08-2003 00:00:00 28.33655 C 37.8276 % 12.59 C
154 13-08-2003 00:00:00 27.60694 C 40.9583 % 13.16 C
155 14-08-2003 00:00:00 24.19301 C 47.1049 % 12.21 C
156 15-08-2003 00:00:00 21.19583 C 43.4375 % 8.28 C
157 16-08-2003 00:00:00 20.93819 C 43.9861 % 8.23 C
158 17-08-2003 00:00:00 21.95417 C 45.0139 % 9.49 C
159 18-08-2003 00:00:00 19.58194 C 82.9028 % 16.6 C
160 19-08-2003 00:00:00 21.01528 C 69.0625 % 15.13 C
161 20-08-2003 00:00:00 20.52164 C 55.3731 % 11.28 C
162 21-08-2003 00:00:00 20.59583 C 53.3000 % 10.77 C
163 22-08-2003 00:00:00 20.25 C 54.7667 % 10.86 C
164 23-08-2003 00:00:00 21.61417 C 58.0667 % 13.02 C
165 24-08-2003 00:00:00 20.755 C 54.0333 % 11.13 C
166 25-08-2003 00:00:00 20.085 C 51.4833 % 9.78 C
167 26-08-2003 00:00:00 20.6475 C 50.7167 % 10.08 C
168 27-08-2003 00:00:00 18.16083 C 58.7250 % 9.96 C
169 28-08-2003 00:00:00 18.705 C 63.4250 % 11.62 C
170 29-08-2003 00:00:00 17.34333 C 84.3083 % 14.67 C
171 30-08-2003 00:00:00 14.92583 C 81.8833 % 11.86 C
172 31-08-2003 00:00:00 14.155 C 71.3917 % 9.06 C
173 01-09-2003 00:00:00 13.11417 C 71.3000 % 8.04 C
174 02-09-2003 00:00:00 14.14167 C 66.8583 % 8.08 C
175 03-09-2003 00:00:00 14.39 C 59.7500 % 6.67 C
Sensor: Nr:Datum:Temp:Feuchte:Taupunkt:
Aussen-T/F 176 04-09-2003 00:00:00 16.6175 C 58.2750 % 8.4 C
177 05-09-2003 00:00:00 17.74833 C 55.5667 % 8.75 C
178 06-09-2003 00:00:00 19.795 C 62.3167 % 12.39 C
179 07-09-2003 00:00:00 18.97417 C 67.1000 % 12.74 C
180 08-09-2003 00:00:00 16.28824 C 75.0336 % 11.86 C
181 09-09-2003 00:00:00 15.21417 C 70.1833 % 9.82 C
182 10-09-2003 00:00:00 14.80667 C 77.9583 % 11 C
183 11-09-2003 00:00:00 14.8625 C 66.0667 % 8.59 C
184 12-09-2003 00:00:00 16.89667 C 62.4667 % 9.69 C
185 13-09-2003 00:00:00 17.87 C 57.7833 % 9.44 C
186 14-09-2003 00:00:00 15.66083 C 63.5500 % 8.77 C
187 15-09-2003 00:00:00 16.91818 C 65.4793 % 10.41 C
188 16-09-2003 00:00:00 16.72397 C 67.3058 % 10.64 C
189 17-09-2003 00:00:00 17.685 C 65.4000 % 11.12 C
190 18-09-2003 00:00:00 18.04583 C 58.8333 % 9.88 C
191 19-09-2003 00:00:00 19.47083 C 57.8417 % 10.96 C
192 20-09-2003 00:00:00 20.25882 C 60.2185 % 12.3 C
193 21-09-2003 00:00:00 20.695 C 53.1500 % 10.82 C
194 22-09-2003 00:00:00 18.3225 C 69.5000 % 12.65 C
195 23-09-2003 00:00:00 13.95333 C 70.6750 % 8.72 C
196 24-09-2003 00:00:00 10.7375 C 70.4583 % 5.59 C
197 25-09-2003 00:00:00 11.6925 C 64.3750 % 5.2 C
198 26-09-2003 00:00:00 12.8025 C 63.1500 % 5.98 C
199 27-09-2003 00:00:00 13.93417 C 67.8500 % 8.1 C
200 28-09-2003 00:00:00 14.33554 C 77.3967 % 10.44 C
Sensor: Nr:Datum:Temp:Feuchte:Taupunkt:
Aussen-T/F 201 29-09-2003 00:00:00 13.1625 C 65.3583 % 6.82 C
202 30-09-2003 00:00:00 12.02083 C 69.6500 % 6.65 C
203 01-10-2003 00:00:00 10.64793 C 81.5289 % 7.62 C
204 02-10-2003 00:00:00 16.3025 C 80.8000 % 13 C
205 03-10-2003 00:00:00 16.015 C 77.1583 % 12.02 C
206 04-10-2003 00:00:00 12.51583 C 79.8000 % 9.13 C
207 05-10-2003 00:00:00 9.27917 C 74.4000 % 4.97 C
208 06-10-2003 00:00:00 7.6025 C 76.5333 % 3.75 C
209 07-10-2003 00:00:00 8.125 C 79.9833 % 4.89 C
210 08-10-2003 00:00:00 9.46694 C 76.2479 % 5.5 C
211 09-10-2003 00:00:00 12.52833 C 76.0750 % 8.43 C
212 10-10-2003 00:00:00 13.88667 C 73.4417 % 9.22 C
213 11-10-2003 00:00:00 13.46833 C 76.5250 % 9.43 C
214 12-10-2003 00:00:00 10.71157 C 70.5620 % 5.59 C
215 13-10-2003 00:00:00 8.84417 C 70.8333 % 3.85 C
216 14-10-2003 00:00:00 8.61774 C 64.7984 % 2.38 C
217 15-10-2003 00:00:00 6.7392 C 67.5920 % 1.18 C
218 16-10-2003 00:00:00 7.11532 C 68.5726 % 1.74 C
219 17-10-2003 00:00:00 6.33417 C 65.2583 % 0.3 C
220 18-10-2003 00:00:00 4.57667 C 72.5000 % 0.07 C
221 19-10-2003 00:00:00 4.02333 C 78.4000 % 0.61 C
222 20-10-2003 00:00:00 6.06833 C 73.9417 % 1.78 C
223 21-10-2003 00:00:00 5.19853 C 78.9044 % 1.85 C
224 22-10-2003 00:00:00 3.7873 C 87.5000 % 1.91 C
225 23-10-2003 00:00:00 3.55476 C 64.1190 % -2.58 C
Sensor: Nr:Datum:Temp:Feuchte:Taupunkt:
Aussen-T/F 226 24-10-2003 00:00:00 0.92869 C 65.7787 % -4.73 C
227 25-10-2003 00:00:00 4.80331 C 66.9917 % -0.79 C
228 26-10-2003 00:00:00 6.392 C 69.9840 % 1.33 C
229 27-10-2003 00:00:00 6.27667 C 74.4000 % 2.07 C
230 28-10-2003 00:00:00 4.52667 C 74.7833 % 0.45 C
231 29-10-2003 00:00:00 5.675 C 85.5726 % 3.45 C
232 30-10-2003 00:00:00 5.9688 C 83.1200 % 3.33 C
233 31-10-2003 00:00:00 7.1 C 87.1774 % 5.12 C
234 01-11-2003 00:00:00 9.5144 C 76.7600 % 5.64 C
235 02-11-2003 00:00:00 9.956 C 67.9440 % 4.32 C
236 03-11-2003 00:00:00 12.28333 C 66.8833 % 6.32 C
237 04-11-2003 00:00:00 9.815 C 73.6417 % 5.34 C
238 05-11-2003 00:00:00 6.345 C 80.5333 % 3.25 C
239 06-11-2003 00:00:00 4.63388 C 80.1322 % 1.51 C
240 07-11-2003 00:00:00 5.57323 C 70.3701 % 0.62 C
241 08-11-2003 00:00:00 6.66748 C 66.3740 % 0.86 C
242 09-11-2003 00:00:00 5.94409 C 72.6378 % 1.41 C
243 10-11-2003 00:00:00 6.52937 C 76.1190 % 2.63 C
244 11-11-2003 00:00:00 5.2064 C 69.3200 % 0.06 C
245 12-11-2003 00:00:00 5.06859 C 71.5455 % 0.36 C
246 13-11-2003 00:00:00 7.195 C 76.3250 % 3.32 C
247 14-11-2003 00:00:00 5.67167 C 79.2833 % 2.37 C
248 15-11-2003 00:00:00 6.93719 C 77.5372 % 3.29 C
249 16-11-2003 00:00:00 4.36532 C 87.4355 % 2.47 C
250 17-11-2003 00:00:00 6.63361 C 75.4918 % 2.62 C
Sensor: Nr:Datum:Temp:Feuchte:Taupunkt:
Aussen-T/F 251 18-11-2003 00:00:00 8.51967 C 81.8852 % 5.61 C
252 19-11-2003 00:00:00 11.89837 C 74.1951 % 7.46 C
253 20-11-2003 00:00:00 10.56167 C 72.6167 % 5.86 C
254 21-11-2003 00:00:00 9.79083 C 71.8667 % 4.97 C
255 22-11-2003 00:00:00 9.85167 C 75.1167 % 5.66 C
256 23-11-2003 00:00:00 13.305 C 59.1083 % 5.5 C
257 24-11-2003 00:00:00 13.64667 C 61.8500 % 6.47 C
258 25-11-2003 00:00:00 11.82683 C 69.7236 % 6.48 C
259 26-11-2003 00:00:00 9.87317 C 68.3008 % 4.32 C
260 27-11-2003 00:00:00 7.63871 C 86.8548 % 5.59 C
261 28-11-2003 00:00:00 5.24797 C 85.3577 % 3 C
262 29-11-2003 00:00:00 3.545 C 80.2833 % 0.48 C
263 30-11-2003 00:00:00 5.35833 C 82.9833 % 2.71 C
264 01-12-2003 00:00:00 7.79167 C 77.0500 % 4.03 C
265 02-12-2003 00:00:00 5.15833 C 80.9417 % 2.16 C
266 03-12-2003 00:00:00 3.17273 C 88.3719 % 1.44 C
267 04-12-2003 00:00:00 4.92258 C 80.2823 % 1.82 C
268 05-12-2003 00:00:00 5.37787 C 72.3279 % 0.81 C
269 06-12-2003 00:00:00 3.05124 C 71.3223 % -1.62 C
270 07-12-2003 00:00:00 -2.40492 C 71.0820 % -6.92 C
271 08-12-2003 00:00:00 -4.28 C 78.6917 % -7.42 C
272 09-12-2003 00:00:00 -4.81083 C 76.5667 % -8.29 C
273 10-12-2003 00:00:00 -3.95583 C 77.6917 % -7.27 C
274 11-12-2003 00:00:00 1.15083 C 74.2833 % -2.9 C
275 12-12-2003 00:00:00 4.94758 C 79.1855 % 1.65 C
Sensor: Nr:Datum:Temp:Feuchte:Taupunkt:
Aussen-T/F 276 13-12-2003 00:00:00 10.35 C 78.4262 % 6.77 C
277 14-12-2003 00:00:00 7.74758 C 65.7500 % 1.75 C
278 15-12-2003 00:00:00 3.0314 C 68.9421 % -2.1 C
279 16-12-2003 00:00:00 3.83333 C 70.9917 % -0.93 C
280 17-12-2003 00:00:00 3.71417 C 75.4750 % -0.21 C
281 18-12-2003 00:00:00 -0.60917 C 84.4750 % -2.9 C
282 19-12-2003 00:00:00 2.1325 C 80.4417 % -0.87 C
283 20-12-2003 00:00:00 8.76446 C 73.6198 % 4.32 C
284 21-12-2003 00:00:00 6.09262 C 71.7705 % 1.39 C
285 22-12-2003 00:00:00 1.6822 C 71.7458 % -2.86 C
286 23-12-2003 00:00:00 -0.1781 C 74.3905 % -4.17 C
287 24-12-2003 00:00:00 1.48333 C 69.6349 % -3.45 C
288 25-12-2003 00:00:00 3.60256 C 69.7265 % -1.4 C
289 26-12-2003 00:00:00 5.71008 C 71.8739 % 1.04 C
290 27-12-2003 00:00:00 7.0438 C 69.6364 % 1.88 C
291 28-12-2003 00:00:00 7.02333 C 71.9333 % 2.32 C
292 29-12-2003 00:00:00 1.82917 C 68.9167 % -3.25 C
293 30-12-2003 00:00:00 -1.70333 C 83.5833 % -4.11 C
294 31-12-2003 00:00:00 -1.04017 C 78.5214 % -4.29 C
295 01-01-2004 00:00:00 -2.37115 C 75.9519 % -6.02 C
296 02-01-2004 00:00:00 -2.12212 C 48.7965 % -11.44 C
297 03-01-2004 00:00:00 -5.68621 C 71.0603 % -10.08 C
298 04-01-2004 00:00:00 -2.61969 C 72.4646 % -6.88 C
299 05-01-2004 00:00:00 1.15917 C 83.2833 % -1.35 C
300 06-01-2004 00:00:00 2.9925 C 86.9833 % 1.04 C
Sensor: Nr:Datum:Temp:Feuchte:Taupunkt:
Aussen-T/F 301 07-01-2004 00:00:00 5.665 C 80.7250 % 2.62 C
302 08-01-2004 00:00:00 4.4437 C 78.9496 % 1.12 C
303 09-01-2004 00:00:00 5.33898 C 80.6102 % 2.28 C
304 10-01-2004 00:00:00 4.62667 C 74.7417 % 0.54 C
305 11-01-2004 00:00:00 9.1975 C 74.0917 % 4.83 C
306 12-01-2004 00:00:00 5.775 C 72.9417 % 1.31 C
307 13-01-2004 00:00:00 7.80083 C 69.7083 % 2.62 C
308 14-01-2004 00:00:00 5.86667 C 63.7083 % -0.47 C
309 15-01-2004 00:00:00 4.12083 C 70.3750 % -0.77 C
310 16-01-2004 00:00:00 5.9575 C 65.0417 % -0.1 C
311 17-01-2004 00:00:00 4.54333 C 68.7833 % -0.68 C
312 18-01-2004 00:00:00 2.49583 C 68.9417 % -2.61 C
313 19-01-2004 00:00:00 0.56471 C 77.5966 % -2.89 C
314 20-01-2004 00:00:00 4.19833 C 74.5917 % 0.1 C
315 21-01-2004 00:00:00 0.6125 C 62.2417 % -5.76 C
316 22-01-2004 00:00:00 -0.92333 C 68.3750 % -6 C
317 23-01-2004 00:00:00 -0.45583 C 63.8417 % -6.45 C
318 24-01-2004 00:00:00 -0.8575 C 68.2083 % -5.97 C
319 25-01-2004 00:00:00 2.03167 C 81.7583 % -0.75 C
320 26-01-2004 00:00:00 1.7325 C 71.4417 % -2.87 C
321 27-01-2004 00:00:00 0.47583 C 64.6333 % -5.4 C
322 28-01-2004 00:00:00 0.665 C 66.7750 % -4.79 C
323 29-01-2004 00:00:00 0.295 C 70.8750 % -4.35 C
324 30-01-2004 00:00:00 0.67083 C 59.1083 % -6.38 C
325 31-01-2004 00:00:00 6.21597 C 59.3697 % -1.1 C
Sensor: Nr:Datum:Temp:Feuchte:Taupunkt:
Aussen-T/F 326 01-02-2004 00:00:00 11.11083 C 58.0417 % 3.18 C
327 02-02-2004 00:00:00 11.24083 C 66.9750 % 5.34 C
328 03-02-2004 00:00:00 11.46 C 62.1333 % 4.48 C
329 04-02-2004 00:00:00 12.275 C 51.2833 % 2.52 C
330 05-02-2004 00:00:00 12.8325 C 51.3917 % 3.07 C
331 06-02-2004 00:00:00 13.52417 C 50.5000 % 3.46 C
332 07-02-2004 00:00:00 9.05417 C 49.8833 % -0.83 C
333 08-02-2004 00:00:00 4.03583 C 67.1250 % -1.5 C
334 09-02-2004 00:00:00 3.1225 C 61.5000 % -3.54 C
335 10-02-2004 00:00:00 2.2525 C 64.8167 % -3.67 C
336 11-02-2004 00:00:00 5.42417 C 80.4500 % 2.34 C
337 12-02-2004 00:00:00 3.90932 C 63.4746 % -2.38 C
338 13-02-2004 00:00:00 5.5876 C 75.4545 % 1.6 C
339 14-02-2004 00:00:00 6.88083 C 73.6917 % 2.52 C
340 15-02-2004 00:00:00 6.2625 C 73.0750 % 1.8 C
341 16-02-2004 00:00:00 5.3425 C 69.5583 % 0.24 C
342 17-02-2004 00:00:00 3.33417 C 68.6667 % -1.86 C
343 18-02-2004 00:00:00 4.05167 C 64.0500 % -2.12 C
344 19-02-2004 00:00:00 1.21833 C 58.5000 % -6 C
345 20-02-2004 00:00:00 2.01417 C 48.5417 % -7.68 C
346 21-02-2004 00:00:00 1.18 C 55.1917 % -6.79 C
347 22-02-2004 00:00:00 1.965 C 59.5333 % -5.07 C
348 23-02-2004 00:00:00 0.45868 C 60.0000 % -6.38 C
349 24-02-2004 00:00:00 -0.95167 C 61.6917 % -7.37 C
350 25-02-2004 00:00:00 1.34583 C 73.6000 % -2.84 C
Sensor: Nr:Datum:Temp:Feuchte:Taupunkt:
Aussen-T/F 351 26-02-2004 00:00:00 -0.21417 C 64.6083 % -6.07 C
352 27-02-2004 00:00:00 -1.6575 C 59.8250 % -8.43 C
353 28-02-2004 00:00:00 0.15508 C 53.9237 % -8.05 C
354 29-02-2004 00:00:00 -1.085 C 58.9083 % -8.09 C
355 01-03-2004 00:00:00 -0.13417 C 54.4167 % -8.21 C
356 02-03-2004 00:00:00 3.0575 C 62.9667 % -3.29 C
357 03-03-2004 00:00:00 3.86667 C 52.7667 % -4.88 C
358 04-03-2004 00:00:00 3.09 C 56.6000 % -4.68 C
359 05-03-2004 00:00:00 3.3075 C 46.8833 % -6.94 C
360 06-03-2004 00:00:00 1.425 C 79.3167 % -1.75 C
361 07-03-2004 00:00:00 3.68583 C 73.7083 % -0.56 C
362 08-03-2004 00:00:00 4.06167 C 57.2833 % -3.61 C
363 09-03-2004 00:00:00 1.66333 C 62.8583 % -4.64 C
364 10-03-2004 00:00:00 0.88 C 75.4667 % -2.95 C
365 11-03-2004 00:00:00 1.12857 C 77.3866 % -2.38 C
366 12-03-2004 00:00:00 3.4975 C 64.3917 % -2.57 C
367 13-03-2004 00:00:00 9.25417 C 58.9083 % 1.65 C
368 14-03-2004 00:00:00 9.66417 C 53.2250 % 0.62 C
369 15-03-2004 00:00:00 11.64167 C 50.1250 % 1.62 C
370 16-03-2004 00:00:00 12.85583 C 58.2250 % 4.86 C
371 17-03-2004 00:00:00 12.58333 C 59.8917 % 5.01 C
372 18-03-2004 00:00:00 14.18 C 58.5833 % 6.19 C
373 19-03-2004 00:00:00 12.33333 C 63.7167 % 5.66 C
374 20-03-2004 00:00:00 12.1875 C 69.8333 % 6.85 C
375 21-03-2004 00:00:00 9.85583 C 63.6250 % 3.29 C
Sensor: Nr:Datum:Temp:Feuchte:Taupunkt:
Aussen-T/F 376 22-03-2004 00:00:00 6.47917 C 74.0333 % 2.2 C
377 23-03-2004 00:00:00 5.15966 C 79.9412 % 1.99 C
378 24-03-2004 00:00:00 5.735 C 67.2667 % 0.15 C
379 25-03-2004 00:00:00 4.39083 C 64.6417 % -1.67 C
380 26-03-2004 00:00:00 2.8575 C 64.0583 % -3.25 C
381 27-03-2004 00:00:00 2.76167 C 58.3750 % -4.58 C
382 28-03-2004 00:00:00 4.98174 C 53.4261 % -3.68 C
383 29-03-2004 00:00:00 7.27 C 52.3500 % -1.83 C
384 30-03-2004 00:00:00 11.1075 C 44.1333 % -0.63 C
385 31-03-2004 00:00:00 11.83 C 47.6000 % 1.07 C
386 01-04-2004 00:00:00 14.11083 C 46.6750 % 2.88 C
387 02-04-2004 00:00:00 13.71083 C 50.7167 % 3.69 C
388 03-04-2004 00:00:00 12.5275 C 63.6500 % 5.83 C
389 04-04-2004 00:00:00 12.14333 C 55.2083 % 3.44 C
390 05-04-2004 00:00:00 8.31176 C 68.9832 % 2.96 C
391 06-04-2004 00:00:00 6.33333 C 73.8167 % 2.01 C
392 07-04-2004 00:00:00 5.33417 C 77.4500 % 1.72 C
393 08-04-2004 00:00:00 6.565 C 72.1583 % 1.92 C
394 09-04-2004 00:00:00 7.14583 C 67.5833 % 1.56 C
395 10-04-2004 00:00:00 7.875 C 69.6417 % 2.68 C
396 11-04-2004 00:00:00 7.40667 C 63.5833 % 0.96 C
397 12-04-2004 00:00:00 8.5875 C 57.8583 % 0.77 C
398 13-04-2004 00:00:00 10.13917 C 62.4250 % 3.29 C
399 14-04-2004 00:00:00 11.98667 C 51.2917 % 2.26 C
400 15-04-2004 00:00:00 11.55833 C 51.2833 % 1.86 C
Sensor: Nr:Datum:Temp:Feuchte:Taupunkt:
Aussen-T/F 401 16-04-2004 00:00:00 14.20083 C 49.4833 % 3.79 C
402 17-04-2004 00:00:00 14.72521 C 48.3950 % 3.96 C
403 18-04-2004 00:00:00 12.97583 C 55.3583 % 4.25 C
404 19-04-2004 00:00:00 10.14917 C 49.3417 % 0.03 C
405 20-04-2004 00:00:00 10.01083 C 68.2333 % 4.43 C
406 21-04-2004 00:00:00 14.15667 C 65.1250 % 7.71 C
407 22-04-2004 00:00:00 16.29917 C 63.2333 % 9.3 C
408 23-04-2004 00:00:00 13.10417 C 70.9333 % 7.96 C
409 24-04-2004 00:00:00 12.5125 C 57.1583 % 4.28 C
410 25-04-2004 00:00:00 12.58083 C 58.7083 % 4.72 C
411 26-04-2004 00:00:00 14.825 C 52.0000 % 5.07 C
412 27-04-2004 00:00:00 16.15917 C 52.5583 % 6.46 C
413 28-04-2004 00:00:00 16.0125 C 64.0583 % 9.23 C
414 29-04-2004 00:00:00 16.4958 C 71.1681 % 11.26 C
415 30-04-2004 00:00:00 18.50167 C 61.2833 % 10.91 C
416 01-05-2004 00:00:00 14.56639 C 80.0420 % 11.17 C
417 02-05-2004 00:00:00 15.70083 C 62.4167 % 8.55 C
418 03-05-2004 00:00:00 14.50667 C 61.6667 % 7.24 C
419 04-05-2004 00:00:00 14.02167 C 60.7000 % 6.56 C
420 05-05-2004 00:00:00 12.41083 C 53.1750 % 3.16 C
421 06-05-2004 00:00:00 10.04167 C 73.5583 % 5.54 C
422 07-05-2004 00:00:00 8.415 C 89.6833 % 6.82 C
423 08-05-2004 00:00:00 7.58083 C 86.4750 % 5.47 C
424 09-05-2004 00:00:00 10.3025 C 76.3667 % 6.33 C
425 10-05-2004 00:00:00 12.86 C 78.7833 % 9.27 C
Sensor: Nr:Datum:Temp:Feuchte:Taupunkt:
Aussen-T/F 426 11-05-2004 00:00:00 14.43866 C 69.6975 % 8.98 C
427 12-05-2004 00:00:00 12.22583 C 60.6000 % 4.84 C
428 13-05-2004 00:00:00 11.9225 C 63.4583 % 5.22 C
429 14-05-2004 00:00:00 15.3875 C 58.7000 % 7.35 C
430 15-05-2004 00:00:00 14.34333 C 62.5750 % 7.3 C
431 16-05-2004 00:00:00 16.78167 C 57.5167 % 8.36 C
432 17-05-2004 00:00:00 17.8875 C 57.1250 % 9.29 C
433 18-05-2004 00:00:00 18.75917 C 55.0500 % 9.55 C
434 19-05-2004 00:00:00 19.56 C 54.8833 % 10.25 C
435 20-05-2004 00:00:00 19.53 C 51.2000 % 9.19 C
436 21-05-2004 00:00:00 13.19833 C 69.6667 % 7.78 C
437 22-05-2004 00:00:00 10.73083 C 51.5500 % 1.17 C
438 23-05-2004 00:00:00 11.5479 C 48.7731 % 1.15 C
439 24-05-2004 00:00:00 11.78 C 53.7250 % 2.72 C
440 25-05-2004 00:00:00 14.72583 C 52.4750 % 5.11 C
441 26-05-2004 00:00:00 14.9725 C 47.9000 % 4.04 C
442 27-05-2004 00:00:00 12.81083 C 49.9917 % 2.66 C
443 28-05-2004 00:00:00 13.97333 C 52.4583 % 4.41 C
444 29-05-2004 00:00:00 17.0438 C 47.8843 % 5.93 C
445 30-05-2004 00:00:00 18.69077 C 45.3615 % 6.64 C
446 31-05-2004 00:00:00 15.58167 C 78.2917 % 11.82 C
447 01-06-2004 00:00:00 16.40168 C 67.3193 % 10.33 C
448 02-06-2004 00:00:00 14.86303 C 77.4370 % 10.96 C
449 03-06-2004 00:00:00 16.36167 C 73.4833 % 11.61 C
450 04-06-2004 00:00:00 13.82583 C 85.2250 % 11.39 C
Sensor: Nr:Datum:Temp:Feuchte:Taupunkt:
Aussen-T/F 451 05-06-2004 00:00:00 14.33583 C 74.1833 % 9.8 C
452 06-06-2004 00:00:00 16.84667 C 64.0500 % 10.01 C
453 07-06-2004 00:00:00 20.69333 C 54.8667 % 11.3 C
454 08-06-2004 00:00:00 23.6575 C 52.2167 % 13.29 C
455 09-06-2004 00:00:00 24.735 C 57.8917 % 15.89 C
456 10-06-2004 00:00:00 21.21417 C 78.4667 % 17.32 C
457 11-06-2004 00:00:00 18.8725 C 79.4167 % 15.23 C
458 12-06-2004 00:00:00 15.64417 C 73.0083 % 10.83 C
459 13-06-2004 00:00:00 15.35042 C 70.5210 % 10.02 C
460 14-06-2004 00:00:00 17.5175 C 60.5333 % 9.8 C
461 15-06-2004 00:00:00 20.5725 C 61.3083 % 12.87 C
462 16-06-2004 00:00:00 17.205 C 51.2750 % 7.07 C
463 17-06-2004 00:00:00 18.3025 C 55.5417 % 9.26 C
464 18-06-2004 00:00:00 15.54 C 72.5167 % 10.62 C
465 19-06-2004 00:00:00 14.39167 C 66.9833 % 8.35 C
466 20-06-2004 00:00:00 14.56583 C 58.9917 % 6.65 C
467 21-06-2004 00:00:00 14.90333 C 62.9000 % 7.91 C
468 22-06-2004 00:00:00 15.64583 C 77.4250 % 11.71 C
469 23-06-2004 00:00:00 19.17083 C 64.4833 % 12.32 C
470 24-06-2004 00:00:00 16.3775 C 51.3750 % 6.33 C
471 25-06-2004 00:00:00 14.59167 C 62.3833 % 7.49 C
472 26-06-2004 00:00:00 16.39328 C 62.6387 % 9.25 C
473 27-06-2004 00:00:00 20.93475 C 63.2881 % 13.7 C
474 28-06-2004 00:00:00 19.74667 C 46.7750 % 8.05 C
475 29-06-2004 00:00:00 18.54833 C 52.3167 % 8.6 C
Sensor: Nr:Datum:Temp:Feuchte:Taupunkt:
Aussen-T/F 476 30-06-2004 00:00:00 20.9875 C 49.8333 % 10.13 C
477 01-07-2004 00:00:00 18.20084 C 52.5042 % 8.33 C
478 02-07-2004 00:00:00 15.81417 C 67.5167 % 9.82 C
479 03-07-2004 00:00:00 15.91333 C 65.5417 % 9.47 C
480 04-07-2004 00:00:00 15.28 C 72.2667 % 10.32 C
481 05-07-2004 00:00:00 18.50083 C 64.0583 % 11.58 C
482 06-07-2004 00:00:00 19.60833 C 51.6000 % 9.38 C
483 07-07-2004 00:00:00 18.90167 C 63.0917 % 11.73 C
484 08-07-2004 00:00:00 18.76833 C 74.0250 % 14.04 C
485 09-07-2004 00:00:00 15.12333 C 79.2750 % 11.56 C
486 10-07-2004 00:00:00 14.9525 C 69.0167 % 9.32 C
487 11-07-2004 00:00:00 14.95417 C 65.0917 % 8.46 C
488 12-07-2004 00:00:00 14.17 C 77.3167 % 10.26 C
489 13-07-2004 00:00:00 14.57815 C 68.4370 % 8.84 C
490 14-07-2004 00:00:00 16.24083 C 67.6583 % 10.26 C
491 15-07-2004 00:00:00 19.03167 C 78.2417 % 15.16 C
492 16-07-2004 00:00:00 22.7475 C 61.6833 % 15.01 C
493 17-07-2004 00:00:00 21.68 C 70.6750 % 16.12 C
494 18-07-2004 00:00:00 19.98843 C 80.3636 % 16.5 C
495 19-07-2004 00:00:00 21.74667 C 65.6167 % 15.03 C
496 20-07-2004 00:00:00 19.855 C 75.1583 % 15.33 C
497 21-07-2004 00:00:00 22.40083 C 67.3583 % 16.06 C
498 22-07-2004 00:00:00 24.60504 C 62.4958 % 16.97 C
499 23-07-2004 00:00:00 23.33 C 70.3000 % 17.62 C
500 24-07-2004 00:00:00 22.0075 C 55.3000 % 12.64 C
Sensor: Nr:Datum:Temp:Feuchte:Taupunkt:
Aussen-T/F 501 25-07-2004 00:00:00 18.13833 C 64.8750 % 11.43 C
502 26-07-2004 00:00:00 16.53583 C 77.3000 % 12.55 C
503 27-07-2004 00:00:00 18.38 C 63.7250 % 11.39 C
504 28-07-2004 00:00:00 20.28583 C 54.0833 % 10.7 C
505 29-07-2004 00:00:00 21.75917 C 50.1333 % 10.92 C
506 30-07-2004 00:00:00 22.845 C 51.9750 % 12.47 C
507 31-07-2004 00:00:00 23.185 C 58.1083 % 14.5 C
508 01-08-2004 00:00:00 23.30333 C 57.7000 % 14.5 C
509 02-08-2004 00:00:00 23.80917 C 51.5583 % 13.23 C
510 03-08-2004 00:00:00 24.1975 C 49.2417 % 12.89 C
511 04-08-2004 00:00:00 23.40756 C 62.0000 % 15.71 C
512 05-08-2004 00:00:00 25.28167 C 54.2750 % 15.39 C
513 06-08-2004 00:00:00 25.0625 C 52.3333 % 14.62 C
514 07-08-2004 00:00:00 24.03167 C 66.1333 % 17.32 C
515 08-08-2004 00:00:00 24.36 C 62.3167 % 16.69 C
516 09-08-2004 00:00:00 25.4775 C 46.0750 % 13.04 C
517 10-08-2004 00:00:00 22.66333 C 58.0000 % 13.98 C
518 11-08-2004 00:00:00 22.42804 C 75.3645 % 17.85 C
519 12-08-2004 00:00:00 20.15417 C 76.0000 % 15.79 C
520 13-08-2004 00:00:00 17.9625 C 74.5208 % 13.37 C
521 14-08-2004 00:00:00 18.08333 C 79.5208 % 14.49 C
522 15-08-2004 00:00:00 21.52708 C 63.1667 % 14.23 C

Maximal/Minimal-Werte vom 23.02.2003 - 15.08.2004

Sensor Min Max Avg
Temp
(Aussen-T/F)
-9.4 °C
03-01-2004  05:50:00
36.2 °C
08-08-2003  16:43:01
12.87 °C
Feuchte
(Aussen-T/F)
20 %
13-03-2003  15:27:13
95 %
27-03-2003  04:17:17
64.17 %
Taupunkt
(Aussen-T/F)
-11.44 C
02-01-2004  00:00:00
17.85 C
11-08-2004  00:00:00
5.93 C

Die Daten stammen von einer Davis Vantage Pro 2 Wetter-Station und werden unter Linux mit der Software wview2wettercgi und aufbereitet. Alle Angaben erfolgen ohne Gewähr für ihre Vollständigkeit oder Richtigkeit.
Kontakt: Rainer Krienke krienke@uni-koblenz.de . Meine Webseiten an der Uni Koblenz oder privat.
Version: $Revision: 0.78 $